Location: Zagreb
(45.8000°N, 16.0000°E)
Time: 20:49:47
(UTC+01:00)

YUBILEINY - Pass Details

Date: 02 November 2020
Orbit: 1478 x 1509 km, 82.5° (Epoch: 01 December)

Event Time Altitude Azimuth Distance (km) Brightness Sun altitude
Rises 23:22:13 0° 339° (NNW) 4,610 ? -59.1°
Reaches altitude 10° 23:26:26 10° 321° (NW) 3,625 ? -59.2°
Enters shadow 23:26:44 11° 319° (NW) 3,571 ? -59.2°
